Погода в Братске

Погода в Братске : погода сейчас, прогноз погоды и архив. Всё, что Вы хотите узнать о погоде в Братске!

Поиск расширенной информации на нашем сайте:

Другие новости

Новости СМИ2

Главная страница сайта

Новости сайта

03.07.2017

Напоминаем, что на нашем специализированном сайте Метеоцентр.Азия вы можете получить высокодетализированные автоматические прогнозы погоды по пунктам России, СНГ и мира в авиационном формате (включающие направление и скорость ветра, видимость, явления погоды, количество и форму облачности, нижнюю и верхнюю границу облачности).


Погода в Братске - сегодня

Время (UTC), дата Ветер
(°,м/с) 
Видим.   Явления Облачность Т
(°С)
Тd
(°С)
f(%) Тe
(°С)
Pmin
(гПа)
dP
(гПа)
Po
(мм)
O2
(г/м3)
Тmin Tmax R s Состояние
почвы
06 17.10.18 260 (З) 20000 м    10/1 600 м верхняя 
[Cu hum|Ci sp]
+7.3 +1.8 68 +7  1021.5  1.3  728  286           
09 17.10.18 270 (З) 20000 м    10/0 средняя, верхняя 
[Ac trans|Cs]
+5.7 +1.6 75 +5  1022  0.3  729  287           
12 17.10.18 300 (СЗ) н/о    10/0 средняя, верхняя 
[Ac trans|Cs]
+2.2 +0.8 90 +3  1024.2  1.6  730  292    +7.4       
15 17.10.18 270 (З) н/о    10/0 средняя, верхняя 
[Ac lent|Cs]
+1.7 +0.9 94 +2  1024.6  0.3  730  292           
18 17.10.18 тихо ()   н/о    10/0 средняя 
[Ac As]
+1.4 +0.7 95 +1  1024.6  -0.1  730  292           
21 17.10.18 060 (СВ) н/о  дымка  10/0 верхняя 
[Ci sp]
+0.3 -0.2 96 +1  1024.4  -0.4  730  294           
00 18.10.18 050 (СВ) 0200 м  туман  ?/?  
-0.2 -0.3 99 1024.3  -0.2  729  294  -0.2         
03 18.10.18 070 (В) 1000 м  туман  ?/?  
+1.7 +1.6 99 +2  1023.8  -0.1  729  292           
06 18.10.18 110 (В) 20000 м  {туман}  10/8 600 м верхняя 
[Sc|Ci fib]
+5.7 +2.5 80 +7  1021  -1.9  728  287           
09 18.10.18 010 (С) 20000 м    10/6 600 м средняя, верхняя 
[Sc|Ac trans|Ci fib]
+6.4 +0.2 64 +7  1019.7  -1.2  727  286           
12 18.10.18 010 (С) н/о    10/4 1000 м средняя, верхняя 
[Sc|Ac trans|Ci fib]
+4.7 +0.9 76 +6  1020.1  0.2  727  288    +7.4       
15 18.10.18 тихо ()   н/о    4/0 средняя, верхняя 
[Ac trans|Ci fib]
+2 +0.9 92 +2  1021.3  0.6  728  291           
18 18.10.18 330 (СЗ) н/о    3/0 средняя, верхняя 
[Ac trans|Ci fib]
+1.6 +0.7 94 +2  1022  0.6  728  291           
21 18.10.18 330 (СЗ) н/о    9/9 600 м 
[Sc]
+0.5 -0.1 96 1022.5  0.3  728  293           
00 19.10.18 030 (СВ) 20000 м    10/9 600 м кучево-дожд., верхняя 
[Cb cap|Ci fib]
+2.3 +0 85 +3  1022.7  0.5  729  291  +0.3         
03 19.10.18 110 (В) 20000 м    10/8 1000 м средняя, верхняя 
[Sc|Ac trans|Ci sp]
+4.8 +0.5 74 +4  1022.4  0.2  729  288           
06 19.10.18 070 (В) 20000 м    10/1 1000 м верхняя 
[Cu hum|Cs]
+6.1 +0.3 66 +7  1020.3  -1.8  728  287           
09 19.10.18 020 (С) 20000 м    10/4 1000 м верхняя 
[Sc|Ci sp]
+5.5 -1.4 61 +6  1019.3  -1.1  727  287           
12 19.10.18 050 (СВ) н/о    8/0 верхняя 
[Ci sp]
+2.9 -1.6 72 +4  1019.9  0.1  727  290    +6.2       
15 19.10.18 010 (С) н/о    10/0 верхняя 
[Cc]
+1.7 -2.3 75 +1  1019.8  -0.3  727  291           
18 19.10.18 360 (С) н/о    4/0 верхняя 
[Ci sp]
+0.9 -2.7 77 -1  1019.2  -0.7  726  292           
21 19.10.18 360 (С) н/о    3/0 верхняя 
[Ci fib]
-0.1 -2.8 82 -1  1018.6  -0.7  725  293           
00 20.10.18 330 (СЗ) 20000 м    10/1 600 м средняя 
[Sc|As op]
-0.3 -2.6 84 1019.2  0.5  726  293  -0.3         
03 20.10.18 350 (С) 20000 м    10/6 1000 м кучево-дожд., средняя 
[Cb cap|Ac As]
+0.5 -2.9 78 -1  1019.6  0.5  726  292           
06 20.10.18 360 (С) 20000 м    10/3 1000 м средняя 
[Sc|Ac As]
+2.3 -3.8 64 +2  1018.8  -0.4  726  290           
Время (UTC), дата Ветер
(°,м/с) 
Видим.   Явления Облачность Т
(°С)
Тd
(°С)
f(%) Тe
(°С)
Pmin
(гПа)
dP
(гПа)
Po
(мм)
O2
(г/м3)
Тmin Tmax R s Состояние
почвы

Для получения пояснительной информации подведите курсор к названию столбца.

ПОГОДА в Братске - архив

Всё, что Вы хотите узнать о погоде в Братске - удобно и подробно!

Выберите нужную дату (начиная с 1 января 2015* года) и нажмите кнопку "Найти".
Будут отображены архивные сводки погоды по пункту Братск, начиная с указанной даты.


Отображать данные в формате CSV (для использования в таблицах Excel)


Внимание! Наш архив погоды предназначен исключительно для личного некоммерческого использования в познавательных целях. Если Вам необходимы официальные справки о состоянии погоды (для производственных, юридических, коммерческих и т.п. целей), обращайтесь в органы Росгидромета.

*Примечание: данная дата относится к архиву по метеостанциям СССР (Россия, СНГ, Балтия).
Архив по метеостанциям Зарубежной Европы и Азии (кроме Китая) хранится 10 дней, по другим регионам земного шара (Китай, Африка, Америка, Австралия, Океания) - 1 день.

Братск - район местоположения метеостанции


Название, широта, долгота, высота метеостанции:
Братск (город) 56.3°ш. 101.8°д. 416 м над ур. моря [Российская Федерация]

Дополнительная информация

В oтличие oт бoльшинства пoгoдных сайтoв мы публикуем пoдрoбную метеoинфoрмацию в детальнoм прoфессиoнальнoм фoрмате.

Характеристики температуры и влажнoсти вoздуха измеряются на высoте 2 м в тени вдали oт зданий и деревьев.
Скoрoсть ветра измеряется на высoте 10 м (на урoвне рoста челoвека скoрoсть ветра ниже в 1.5-2 раза). Если метеoстанция нахoдится в гoрoде или в лесу, тo скoрoсть ветра занижена на 2-4 м/с пo сравнению с oткрытым местoм. Скoрoсть ветра над акватoриями крупных рек и oзёр, а также на вершинах хoлмoв на 2-5 м/с выше, чем в oбычных услoвиях.
Атмoсфернoе давление в разных тoчках местнoсти мoжет значительнo oтличаться oт давления на метеoстанции, в зависимoсти oт услoвий рельефа (при пoдъёме на 10 м давление пoнижается примернo на 1 мм рт.ст.).